Wind_Speed
23 23 23 24 23 25 18 14 9 9 8 8 8 5 5 3 4 5 6 6 8 9 5 7 5 2 3 3 2 1 4 1 4 1 4 3 4 3 5 7 3 4 5 13 26
23 24 23 23 23 25 21 14 10 9 8 7 8 5 4 4 4 10 7 10 8 13 5 4 2 3 3 3 3 4 3 5 6 3 4 5 5 9 5 7 3 8 16 26 27
24 25 25 24 24 24 22 14 9 9 8 4 7 6 3 2 0 7 6 14 11 12 5 3 8 2 2 1 2 3 4 2 4 9 5 5 3 3 9 4 6 14 18 21 24
26 26 26 26 25 25 24 13 8 8 8 2 8 7 3 2 5 2 3 17 15 13 6 4 3 3 2 2 4 1 9 5 6 3 7 8 9 6 8 3 13 18 21 20 17
27 27 27 27 27 25 26 13 6 6 6 1 9 7 5 2 7 3 5 19 17 13 8 4 3 3 2 3 3 5 4 2 9 7 5 11 9 5 8 7 19 17 19 16 14
28 28 28 29 30 27 26 11 3 4 4 3 8 8 2 3 3 3 6 22 15 13 8 6 5 5 3 4 3 3 5 7 7 3 7 7 4 6 5 16 20 18 17 15 13
29 29 29 31 31 30 25 9 0 2 3 5 9 3 1 5 3 4 8 15 15 11 4 6 3 3 2 6 2 3 7 7 1 1 3 9 4 3 10 16 18 14 15 15 15
29 30 30 31 30 32 22 6 2 4 4 7 4 1 5 4 3 6 9 6 9 10 5 1 1 1 2 3 7 5 5 3 3 4 3 4 5 2 14 20 16 14 14 14 13
30 30 31 32 31 31 16 2 3 4 4 5 2 1 5 1 3 6 9 5 5 6 3 5 2 3 4 3 5 6 0 1 6 1 4 4 5 6 8 13 15 14 14 13 10
31 31 32 32 34 30 5 3 4 2 3 2 1 2 2 4 4 7 11 11 3 3 2 3 5 3 4 3 1 2 2 1 3 1 3 3 2 8 8 12 15 13 11 12 13
32 32 32 31 33 17 5 3 3 2 2 7 4 2 1 1 6 6 8 7 3 7 2 3 3 6 8 6 4 2 2 0 3 2 6 2 2 5 7 7 8 9 10 11 14
33 33 32 29 27 5 4 3 5 2 6 6 4 5 7 2 4 3 11 4 3 4 3 4 5 6 4 5 3 2 1 3 3 5 6 3 5 4 6 7 11 13 12 13 7
32 33 32 31 12 3 8 4 11 3 1 6 5 5 5 9 5 7 9 5 4 5 5 5 4 3 5 4 4 1 4 3 3 3 7 7 5 3 2 3 4 8 7 6 11
32 33 31 31 2 15 4 7 16 9 4 6 5 7 5 5 3 7 12 6 2 9 6 5 5 3 2 1 5 3 2 1 6 4 4 3 4 5 2 4 6 10 9 10 8
31 33 29 23 16 5 4 16 3 3 2 3 3 3 4 9 5 4 6 4 6 6 5 5 1 2 2 5 6 3 3 3 2 4 4 3 4 6 2 6 8 9 11 9 9
32 31 30 9 13 14 11 13 3 5 6 2 5 6 7 2 2 3 4 3 2 4 1 5 3 3 6 3 0 6 5 7 5 3 2 2 5 5 6 12 5 3 6 8 9
33 29 25 18 5 6 15 3 4 3 4 4 5 5 5 5 3 4 7 5 5 4 2 3 3 3 3 4 2 6 7 3 4 5 5 0 3 7 5 3 9 11 8 7 8
35 29 17 19 8 6 3 5 4 5 6 4 4 4 9 5 5 4 6 5 4 4 3 5 3 3 2 6 7 3 6 5 2 2 4 3 3 4 7 6 9 7 7 7 7
34 16 11 9 13 11 5 3 8 7 3 2 3 5 4 4 5 4 7 6 8 8 7 5 4 2 1 3 5 4 4 4 7 3 3 4 6 3 5 4 10 7 7 7 7
22 11 7 7 9 13 4 6 5 5 3 1 7 4 9 6 6 6 8 5 6 11 4 7 3 2 3 2 8 5 6 4 3 2 3 5 5 5 2 4 6 8 9 9 5
7 4 8 3 14 4 6 7 5 7 4 3 2 4 6 8 9 6 7 5 7 5 5 5 4 4 1 4 6 2 2 7 5 4 5 1 6 6 7 9 13 12 13 10 9
7 2 5 16 3 0 5 6 4 3 1 3 2 5 8 8 7 8 10 6 5 9 9 6 5 3 1 4 2 1 4 5 5 4 1 3 6 2 6 8 7 7 6 6 7
3 3 2 4 4 2 3 4 3 3 3 1 3 5 3 7 4 6 6 1 6 8 10 8 0 3 7 6 3 6 3 5 6 4 6 6 6 2 3 4 6 8 8 8 7
1 3 4 3 1 5 5 4 4 4 5 5 4 2 2 4 0 5 3 4 3 3 8 9 4 7 8 8 5 5 3 3 5 4 5 5 5 5 4 5 6 6 6 7 7
1 3 1 2 2 1 1 3 5 5 4 6 3 6 6 5 3 4 3 2 4 1 4 5 5 3 4 4 4 5 5 6 3 5 5 3 6 7 7 7 5 5 7 7 7
1 2 4 3 3 2 1 4 6 2 2 4 5 3 6 7 8 8 7 3 5 4 3 3 2 3 5 4 5 4 4 5 3 4 2 2 6 7 4 2 5 6 6 7 6
4 2 2 3 4 2 4 3 4 2 5 7 3 4 4 6 5 1 3 5 6 7 3 4 6 3 3 3 3 3 7 5 3 2 5 5 7 5 4 1 3 6 5 6 4
Wind_Direction
10 9 12 13 11 4 356 348 339 327 307 277 257 250 249 253 263 233 239 228 203 185 146 129 96 119 40 56 62 52 65 290 283 143 279 170 115 131 129 128 180 148 132 136 147
8 6 7 8 8 4 356 349 340 338 319 282 233 229 223 276 274 246 220 194 189 185 138 111 112 79 23 46 36 82 100 230 204 264 186 228 132 142 136 151 58 84 106 131 147
4 4 4 5 6 2 356 348 340 344 338 296 210 201 204 276 274 243 198 188 175 171 107 144 121 72 47 106 166 143 214 242 269 250 142 162 115 144 124 190 184 156 148 149 153
1 0 360 0 2 360 355 345 339 347 350 319 186 182 164 131 175 147 163 179 172 165 139 137 89 61 338 281 200 192 249 242 281 26 133 167 140 162 179 209 150 155 149 153 162
359 358 356 358 358 357 353 342 334 353 360 84 166 165 144 143 252 208 163 170 164 163 166 155 131 157 238 240 285 186 272 249 267 263 143 146 182 187 199 103 128 137 146 161 172
357 356 354 354 354 354 349 343 332 6 23 113 156 157 117 209 294 225 174 169 175 167 177 178 187 201 225 231 197 208 259 264 252 105 135 144 128 121 124 122 132 145 155 169 179
355 353 352 351 350 350 347 348 5 64 73 117 139 128 169 234 293 205 168 180 185 185 159 202 178 71 14 309 301 322 342 343 307 93 136 114 98 245 130 134 138 155 163 176 188
353 350 349 349 349 345 344 353 133 104 108 132 133 114 241 290 295 176 171 169 192 203 215 245 330 197 131 305 0 25 48 24 312 137 119 103 229 107 146 142 145 163 177 185 189
352 349 347 348 346 340 339 11 127 120 115 136 96 54 278 329 194 196 174 153 160 202 242 299 25 62 14 64 3 6 236 180 325 285 121 85 245 134 149 149 153 173 185 187 188
350 348 346 346 343 337 347 133 137 114 113 125 294 359 255 230 179 171 179 139 133 131 9 96 50 49 31 74 189 307 360 262 253 198 80 108 166 136 160 161 171 179 181 185 193
349 346 344 344 340 341 112 107 19 24 183 195 186 252 254 246 157 173 164 146 80 56 154 11 76 221 219 195 165 231 291 91 272 67 89 185 97 154 165 148 169 187 194 197 205
348 345 342 344 338 65 36 87 112 267 311 232 238 274 263 247 150 205 162 120 125 172 134 31 225 216 207 174 178 168 145 289 283 26 97 93 56 124 186 205 194 188 198 206 185
346 344 342 341 342 346 324 142 334 162 147 289 191 190 210 149 199 218 140 153 158 153 185 171 222 96 197 153 146 111 176 157 143 56 45 99 3 4 138 207 190 222 215 220 202
344 342 341 341 344 333 275 326 335 164 47 268 221 255 140 139 236 186 172 142 181 194 168 230 267 210 172 148 131 186 213 96 111 92 169 51 233 276 204 239 203 212 206 212 199
339 338 335 337 306 290 321 331 16 107 349 208 186 145 166 151 158 209 173 80 173 186 115 248 253 116 137 210 177 178 103 61 56 91 101 4 92 253 179 233 221 213 205 202 192
334 332 329 324 299 280 308 334 112 45 253 230 147 156 124 144 150 114 126 83 140 154 348 246 284 185 201 85 15 128 78 48 57 87 55 223 140 276 192 210 158 185 182 174 167
329 322 312 288 245 316 325 27 56 162 303 202 179 148 146 159 205 136 150 177 162 111 252 331 268 292 155 107 42 72 57 5 5 12 209 238 86 243 289 216 174 172 174 168 164
325 318 301 268 251 267 298 59 188 232 240 296 114 97 173 157 228 160 124 176 231 104 116 154 306 199 180 181 168 69 134 143 196 231 268 313 244 249 279 195 133 160 152 142 166
326 317 287 276 228 201 83 138 202 208 230 328 88 111 211 213 166 138 175 195 194 165 167 144 266 270 204 133 122 177 70 148 104 26 31 291 296 311 18 131 139 141 151 172 184
327 318 272 292 194 154 95 226 230 219 315 29 199 167 174 189 157 161 172 207 201 190 147 203 102 35 121 97 44 119 148 77 17 136 276 304 283 243 153 223 164 161 177 195 179
337 348 335 200 141 63 181 220 256 250 241 204 234 169 189 170 168 174 204 256 190 146 117 143 102 271 85 31 166 90 85 55 109 109 160 247 273 216 213 196 191 192 192 181 181
347 328 49 151 85 30 164 193 217 268 303 295 216 214 181 173 165 181 205 227 151 145 160 184 125 130 137 307 264 122 133 131 122 222 123 152 271 281 256 219 203 210 184 175 180
336 267 52 201 153 231 261 231 228 216 230 245 269 207 178 176 147 180 182 279 151 156 165 182 310 68 357 359 1 79 102 105 105 89 187 143 260 299 319 187 216 182 181 184 173
14 335 314 48 353 163 169 206 216 217 242 218 255 204 138 190 335 177 173 33 96 109 80 97 103 157 186 194 139 137 143 133 113 113 172 222 290 306 315 229 185 178 170 156 151
110 260 169 270 341 25 210 188 173 201 213 179 268 218 182 167 125 157 145 129 65 54 64 105 109 109 36 106 104 141 161 154 120 156 151 226 212 271 258 237 230 154 136 139 139
347 6 347 278 297 222 189 193 178 188 189 261 220 253 191 179 179 188 145 170 180 47 76 23 139 128 37 10 121 118 148 125 95 123 301 161 274 238 294 137 177 174 149 146 155
340 324 118 289 324 143 195 188 183 107 243 232 246 142 178 228 178 136 100 112 135 136 113 84 131 102 172 10 69 2 204 171 125 163 159 206 237 328 332 271 128 118 128 145 122
Height
792 788 784 780 777 773 769 767 765 763 761 761 761 762 763 765 766 766 764 757 756 756 758 760 762 762 763 766 766 767 800 810 795 788 780 767 773 769 768 779 780 782 786 790 800
792 788 784 780 777 773 768 766 764 762 760 759 760 761 763 764 764 762 756 755 755 757 759 760 762 763 769 771 772 784 806 793 776 769 771 769 767 772 778 782 786 787 789 794 801
791 788 784 780 776 772 767 764 762 761 759 758 758 760 762 763 765 752 749 754 756 758 760 761 762 764 772 772 775 782 795 774 765 761 760 770 771 766 780 791 785 788 792 795 801
791 787 783 779 775 771 767 763 761 760 758 757 757 760 762 763 777 748 749 752 757 759 761 762 764 771 779 780 771 786 773 770 762 758 765 770 768 772 771 774 770 780 789 797 802
791 786 782 778 774 770 765 762 760 759 758 756 757 760 762 764 757 748 749 753 756 760 762 764 769 773 781 777 774 781 771 763 758 761 756 762 768 772 773 768 774 785 793 800 805
790 786 781 777 772 768 764 760 759 758 757 757 758 760 762 767 748 747 748 752 755 759 761 763 765 765 772 775 776 768 768 767 757 755 756 767 772 770 774 773 780 788 796 801 805
789 785 780 775 770 766 761 759 758 758 757 757 759 760 761 753 747 747 749 752 755 757 760 760 761 764 765 773 763 767 775 765 756 752 763 762 781 777 773 777 786 794 796 800 802
788 783 779 774 769 764 760 758 758 758 758 758 759 760 759 747 746 748 749 752 754 757 758 758 759 761 765 763 770 780 784 793 763 759 763 764 796 781 775 779 790 795 796 799 802
787 782 777 772 767 761 758 757 758 758 759 759 761 761 757 747 747 747 749 751 753 755 757 758 758 769 770 786 800 798 804 796 782 759 765 771 789 784 780 783 790 793 794 798 804
786 781 775 770 765 759 756 757 758 759 759 760 761 765 751 748 744 746 749 751 753 756 759 762 774 785 792 800 818 802 800 793 790 768 767 780 785 788 784 785 789 791 795 799 801
784 779 774 769 763 757 757 758 762 763 760 753 751 750 744 742 743 746 748 751 753 761 779 772 790 800 788 787 781 783 789 795 774 766 782 786 790 794 789 791 794 795 795 796 794
782 777 772 767 762 759 759 758 760 763 765 745 746 745 742 742 749 745 747 757 763 780 774 787 799 774 771 776 781 788 793 791 778 770 781 794 799 794 792 789 787 790 792 792 796
781 776 770 765 761 760 759 758 758 756 767 749 742 742 739 741 749 748 745 753 764 777 780 792 772 763 768 775 781 783 792 786 785 781 785 794 810 800 792 787 788 788 787 791 792
780 775 770 764 764 760 758 757 754 754 788 760 747 735 735 737 750 737 740 749 762 776 779 782 763 765 765 771 779 790 768 772 782 798 823 797 843 810 798 794 791 788 788 788 790
778 773 770 768 765 761 757 754 752 754 813 744 741 724 729 741 740 742 737 745 766 768 772 776 765 765 771 769 768 777 767 776 782 804 809 811 833 814 799 801 795 788 784 785 787
775 771 767 766 763 755 754 752 753 793 806 747 734 740 744 739 740 741 743 741 746 762 765 767 753 755 760 759 759 767 780 797 811 820 839 816 827 823 810 786 791 785 783 783 786
769 766 763 762 757 754 754 753 793 807 748 749 746 741 747 753 749 747 758 764 778 791 787 770 764 752 748 766 764 777 806 842 835 849 843 818 828 810 787 779 778 781 782 782 783
763 758 754 752 752 753 755 771 797 767 762 732 740 747 757 750 750 751 763 776 764 772 798 798 798 762 748 760 778 788 799 838 841 856 843 820 822 804 781 773 772 776 778 781 783
757 752 748 743 744 752 762 791 781 765 740 739 740 756 758 749 751 753 765 771 763 764 787 797 787 754 752 752 760 786 807 801 840 850 848 838 811 786 782 781 777 783 781 783 782
757 752 744 741 742 749 769 779 762 744 734 733 753 745 764 758 758 762 768 749 753 753 751 770 789 764 756 753 764 769 788 816 834 842 844 842 830 819 794 791 785 787 787 784 784
759 756 742 739 743 754 769 769 751 736 733 738 740 748 748 753 756 765 760 745 739 752 751 766 779 778 762 775 783 787 800 820 829 841 853 857 834 794 789 785 783 780 778 782 784
765 762 743 742 755 767 767 753 738 734 728 730 731 734 743 743 755 758 756 744 730 741 761 761 787 799 782 773 771 772 789 804 830 832 849 847 829 778 782 779 778 778 778 780 781
778 770 742 742 761 764 752 742 736 735 734 732 734 728 726 738 745 745 747 728 731 740 753 759 793 816 806 791 773 783 787 805 817 827 839 842 827 778 777 776 777 780 780 780 782
778 766 752 746 751 747 745 743 742 728 732 729 730 726 728 735 733 743 738 733 730 737 740 748 791 791 805 793 787 792 787 795 802 828 833 831 809 784 778 780 778 777 778 780 783
778 770 767 757 752 747 743 739 742 739 730 730 731 733 733 742 740 742 738 736 736 739 746 753 784 785 788 778 776 782 785 788 791 803 810 805 809 789 782 779 777 776 779 782 784
778 776 771 765 759 751 749 744 739 736 735 734 735 725 732 739 734 744 738 741 740 743 752 760 789 781 793 782 780 788 785 784 785 799 797 798 803 784 777 776 778 779 781 784 786
777 776 776 762 758 752 749 743 737 737 729 726 725 729 731 725 719 721 725 732 731 743 761 768 786 795 805 793 788 803 790 786 788 788 791 804 792 786 783 783 783 783 784 786 788